Hourly Data Report for September 25, 2017

All times are specified in Local Standard Time (LST). Add 1 hour to adjust for Daylight Saving Time where and when it is observed.

PANGNIRTUNG
NUNAVUT

66°08'36.300" N
65°42'40.500" W
22.60 m
2403049
71826
WXP

Download Data

Hourly Data (September 2017)
Hourly Data Report for September 25, 2017
Temp Definition
°C
Dew Point Temp Definition
°C
Rel Hum Definition
%
Wind Dir Definition
10's deg

Wind Spd Definition
km/h
Visibility Definition
km
Stn Press Definition
kPa
Hmdx Definition


Wind Chill Definition


Weather Definition


TIME
00:00 -1.6 -4.7 80 4 2   100.12   -2 LegendNANA
01:00 -1.2 -5.2 74 22 8   100.13   -4 LegendNANA
02:00 -2.7 -6.0 78 19 2   100.17   -3 LegendNANA
03:00 -3.1 -5.9 81 17 3   100.20   -4 LegendNANA
04:00 -2.6 -5.6 80 14 1   100.26   -3 LegendNANA
05:00 -2.9 -5.5 82 23 2   100.30   -4 LegendNANA
06:00 -1.9 -5.0 79 12 2   100.33   -3 LegendNANA
07:00 -1.4 -4.6 79 23 6   100.38   -4 LegendNANA
08:00 -1.0 -4.7 76 24 4   100.42   -2 LegendNANA
09:00 -0.8 -5.0 73 0 1   100.45   -1 LegendNANA
10:00 -0.6 -3.9 78 28 5   100.46   -2 LegendNANA
11:00 -0.5 -4.2 76 32 2   100.47   -1 LegendNANA
12:00 -0.1 -3.8 76 27 7   100.47   -3 LegendNANA
13:00 0.1 -3.8 75 27 9   100.46     LegendNANA
14:00 1.1 -4.4 67 27 11   100.47     LegendNANA
15:00 1.7 -4.0 66 26 15   100.48     LegendNANA
16:00 0.6 -5.2 65 23 4   100.49     LegendNANA
17:00 0.3 -6.1 62 23 10   100.51     LegendNANA
18:00 -0.6 -5.9 67 13 2   100.53   -1 LegendNANA
19:00 -1.4 -6.1 70 22 4   100.52   -3 LegendNANA
20:00 -1.8 -5.8 74 23 7   100.50   -4 LegendNANA
21:00 -2.2 -6.0 75 11 4   100.49   -4 LegendNANA
22:00 -2.1 -6.5 72 17 2   100.46   -3 LegendNANA
23:00 -2.4 -6.9 71 15 4   100.46   -4 LegendNANA

Notes on Data Quality.

Legend

  • E = Estimated
  • M = Missing
  • NA = Not Available
  • ‡ = Partner data that is not subject to review by the National Climate Archives
Date modified: